When you browse on this site, cookies collect data to enhance your experience and personalize the content and advertising you see.
Visit our Privacy Policy to learn more. By continuing to use the site, you agree to this use of cookies and data.
  • In Sweden
  • List of Countries
  • For 7 days
  • Water Temperature
  • Weather Map
  • Weather Widgets
  • user-avatar
    Login

    Hourly Weather Felling

    Today, 24 February, Monday

    Time Temperature Precipitation Wind Pressure Humidity
    00:00 +3°C° 0 mm 2 mps 757 mmHg 82%
    01:00 +2°C° 0 mm 3 mps 756 mmHg 82%
    02:00 +2°C° 0 mm 3 mps 755 mmHg 82%
    03:00 +2°C° 0 mm 3 mps 755 mmHg 83%
    04:00 0°C° 1.2 mm 4 mps 753 mmHg 87%
    05:00 0°C° 1.2 mm 5 mps 751 mmHg 92%
    06:00 -2°C° 0 mm 6 mps 750 mmHg 97%
    07:00 -2°C° 2.3 mm 7 mps 748 mmHg 97%
    08:00 -2°C° 2.3 mm 8 mps 746 mmHg 97%
    09:00 -3°C° 2.3 mm 9 mps 745 mmHg 98%
    10:00 -2°C° 1.2 mm 7 mps 743 mmHg 98%
    11:00 -1°C° 1.2 mm 6 mps 741 mmHg 98%
    12:00 +1°C° 1.2 mm 4 mps 739 mmHg 99%
    13:00 +2°C° 0.1 mm 5 mps 738 mmHg 98%
    14:00 +3°C° 0.1 mm 7 mps 738 mmHg 97%
    15:00 +5°C° 0.1 mm 8 mps 737 mmHg 97%
    16:00 +3°C° 0 mm 10 mps 737 mmHg 93%
    17:00 +2°C° 0 mm 11 mps 738 mmHg 88%
    18:00 0°C° 0 mm 12 mps 738 mmHg 84%
    19:00 -1°C° 0 mm 12 mps 739 mmHg 84%
    20:00 -1°C° 0 mm 12 mps 739 mmHg 84%
    21:00 -2°C° 0 mm 12 mps 740 mmHg 84%
    22:00 -2°C° 0 mm 11 mps 740 mmHg 84%
    23:00 -2°C° 0 mm 11 mps 741 mmHg 84%

    Tomorrow, 25 February, Tuesday

    Time Temperature Precipitation Wind Pressure Humidity
    00:00 -2°C° 0 mm 10 mps 741 mmHg 83%
    01:00 -1°C° 0 mm 9 mps 741 mmHg 85%
    02:00 -1°C° 0 mm 8 mps 741 mmHg 86%
    03:00 -1°C° 0 mm 7 mps 740 mmHg 87%
    04:00 -1°C° 0.1 mm 7 mps 740 mmHg 87%
    05:00 -1°C° 0.1 mm 8 mps 740 mmHg 87%
    06:00 -1°C° 0.1 mm 8 mps 740 mmHg 87%
    07:00 -1°C° 0 mm 8 mps 739 mmHg 86%
    08:00 0°C° 0 mm 7 mps 739 mmHg 84%
    09:00 0°C° 0 mm 7 mps 738 mmHg 83%
    10:00 0°C° 0 mm 7 mps 738 mmHg 80%
    11:00 +2°C° 0 mm 7 mps 738 mmHg 77%
    12:00 +3°C° 0 mm 7 mps 737 mmHg 75%
    13:00 +3°C° 0.1 mm 7 mps 737 mmHg 75%
    14:00 +3°C° 0.1 mm 6 mps 736 mmHg 76%
    15:00 +2°C° 0.1 mm 6 mps 736 mmHg 76%
    16:00 +2°C° 0.1 mm 6 mps 736 mmHg 78%
    17:00 +1°C° 0.1 mm 5 mps 735 mmHg 80%
    18:00 0°C° 0.1 mm 5 mps 735 mmHg 83%
    19:00 0°C° 0 mm 5 mps 735 mmHg 83%
    20:00 0°C° 0 mm 5 mps 735 mmHg 83%
    21:00 0°C° 0 mm 5 mps 735 mmHg 83%
    22:00 -1°C° 0 mm 6 mps 736 mmHg 83%
    23:00 -2°C° 0 mm 6 mps 736 mmHg 84%

    Day after tomorrow, 26 February, Wednesday

    Time Temperature Precipitation Wind Pressure Humidity
    00:00 -2°C° 0 mm 6 mps 736 mmHg 84%
    01:00 -2°C° 0 mm 6 mps 737 mmHg 84%
    02:00 -2°C° 0 mm 6 mps 737 mmHg 83%
    03:00 -2°C° 0 mm 6 mps 737 mmHg 82%
    04:00 -1°C° 0 mm 5 mps 738 mmHg 82%
    05:00 -2°C° 0 mm 5 mps 739 mmHg 82%
    06:00 -2°C° 0 mm 5 mps 740 mmHg 82%
    07:00 -2°C° 0 mm 6 mps 741 mmHg 79%
    08:00 -1°C° 0 mm 7 mps 741 mmHg 77%
    09:00 -1°C° 0 mm 7 mps 742 mmHg 74%
    10:00 0°C° 0 mm 8 mps 743 mmHg 71%
    11:00 +1°C° 0 mm 8 mps 744 mmHg 68%
    12:00 +2°C° 0 mm 8 mps 745 mmHg 64%
    13:00 +2°C° 0 mm 8 mps 745 mmHg 63%
    14:00 +2°C° 0 mm 8 mps 745 mmHg 61%
    15:00 +1°C° 0 mm 8 mps 745 mmHg 59%
    16:00 0°C° 0 mm 7 mps 745 mmHg 67%
    17:00 0°C° 0 mm 7 mps 746 mmHg 74%
    18:00 -1°C° 0 mm 6 mps 746 mmHg 81%
    19:00 -2°C° 0 mm 6 mps 746 mmHg 82%
    20:00 -2°C° 0 mm 6 mps 746 mmHg 84%
    21:00 -2°C° 0 mm 6 mps 746 mmHg 85%
    22:00 -2°C° 0 mm 6 mps 746 mmHg 84%
    23:00 -1°C° 0 mm 5 mps 745 mmHg 83%

    27 February, Thursday

    Time Temperature Precipitation Wind Pressure Humidity
    00:00 -2°C° 0 mm 5 mps 745 mmHg 83%
    01:00 -2°C° 0 mm 5 mps 745 mmHg 83%
    02:00 -2°C° 0 mm 5 mps 745 mmHg 84%
    03:00 -2°C° 0 mm 4 mps 744 mmHg 85%
    04:00 -2°C° 0 mm 4 mps 744 mmHg 85%
    05:00 -2°C° 0 mm 4 mps 744 mmHg 85%
    06:00 -2°C° 0 mm 4 mps 744 mmHg 85%
    07:00 -1°C° 0 mm 4 mps 744 mmHg 83%
    08:00 0°C° 0 mm 4 mps 744 mmHg 80%
    09:00 0°C° 0 mm 4 mps 744 mmHg 78%
    10:00 +1°C° 0 mm 4 mps 744 mmHg 74%
    11:00 +3°C° 0 mm 4 mps 745 mmHg 69%
    12:00 +4°C° 0 mm 4 mps 745 mmHg 65%
    13:00 +4°C° 0.1 mm 4 mps 745 mmHg 64%
    14:00 +4°C° 0.1 mm 4 mps 745 mmHg 63%
    15:00 +4°C° 0.1 mm 4 mps 745 mmHg 63%
    16:00 +3°C° 0.1 mm 4 mps 746 mmHg 68%
    17:00 +1°C° 0.1 mm 4 mps 746 mmHg 73%
    18:00 0°C° 0.1 mm 4 mps 747 mmHg 79%
    19:00 0°C° 0 mm 3 mps 747 mmHg 80%
    20:00 0°C° 0 mm 3 mps 747 mmHg 80%
    21:00 -1°C° 0 mm 3 mps 748 mmHg 81%
    22:00 -1°C° 0 mm 3 mps 748 mmHg 80%
    23:00 +1°C° 0 mm 2 mps 748 mmHg 79%

    28 February, Friday

    Time Temperature Precipitation Wind Pressure Humidity
    00:00 +1°C° 0 mm 2 mps 748 mmHg 77%
    01:00 0°C° 0 mm 3 mps 748 mmHg 77%
    02:00 0°C° 0 mm 3 mps 747 mmHg 77%
    03:00 0°C° 0 mm 3 mps 747 mmHg 77%
    04:00 -1°C° 0 mm 4 mps 746 mmHg 79%
    05:00 -1°C° 0 mm 5 mps 746 mmHg 80%
    06:00 -1°C° 0 mm 5 mps 745 mmHg 81%
    07:00 -2°C° 0 mm 6 mps 744 mmHg 79%
    08:00 -1°C° 0 mm 7 mps 743 mmHg 78%
    09:00 0°C° 0 mm 8 mps 743 mmHg 77%
    10:00 0°C° 0 mm 8 mps 741 mmHg 81%
    11:00 0°C° 0 mm 8 mps 740 mmHg 86%
    12:00 0°C° 0 mm 8 mps 739 mmHg 90%
    13:00 0°C° 0.8 mm 7 mps 738 mmHg 92%
    14:00 +1°C° 0.8 mm 6 mps 737 mmHg 94%
    15:00 +1°C° 0.8 mm 4 mps 736 mmHg 96%
    16:00 +1°C° 0.2 mm 4 mps 736 mmHg 96%
    17:00 +2°C° 0.2 mm 3 mps 735 mmHg 97%
    18:00 +2°C° 0.2 mm 3 mps 735 mmHg 97%
    19:00 +1°C° 0 mm 3 mps 734 mmHg 95%
    20:00 +1°C° 0 mm 3 mps 734 mmHg 94%
    21:00 0°C° 0 mm 4 mps 734 mmHg 93%
    22:00 +1°C° 0.1 mm 5 mps 733 mmHg 93%
    23:00 +1°C° 0.1 mm 5 mps 733 mmHg 93%

    29 February, Saturday

    Time Temperature Precipitation Wind Pressure Humidity
    00:00 +2°C° 0.1 mm 6 mps 732 mmHg 93%
    01:00 +1°C° 0 mm 6 mps 732 mmHg 90%
    02:00 0°C° 0 mm 5 mps 731 mmHg 87%
    03:00 -1°C° 0 mm 5 mps 731 mmHg 84%
    04:00 -1°C° 0 mm 5 mps 730 mmHg 82%
    05:00 -1°C° 0 mm 4 mps 730 mmHg 81%
    06:00 -1°C° 0 mm 4 mps 730 mmHg 80%
    07:00 -1°C° 0 mm 5 mps 730 mmHg 78%
    08:00 -2°C° 0 mm 6 mps 730 mmHg 76%
    09:00 -1°C° 0 mm 7 mps 730 mmHg 74%
    10:00 -1°C° 0 mm 7 mps 730 mmHg 70%
    11:00 0°C° 0 mm 8 mps 730 mmHg 66%
    12:00 +1°C° 0 mm 8 mps 730 mmHg 62%
    13:00 +1°C° 0 mm 8 mps 730 mmHg 61%
    14:00 +1°C° 0 mm 8 mps 730 mmHg 61%
    15:00 +1°C° 0 mm 8 mps 731 mmHg 60%
    16:00 0°C° 0 mm 8 mps 731 mmHg 66%
    17:00 0°C° 0 mm 7 mps 731 mmHg 72%
    18:00 -1°C° 0 mm 7 mps 731 mmHg 79%
    19:00 -1°C° 0 mm 7 mps 732 mmHg 78%
    20:00 -1°C° 0 mm 6 mps 732 mmHg 78%
    21:00 -2°C° 0 mm 6 mps 733 mmHg 77%
    22:00 -1°C° 0 mm 5 mps 733 mmHg 81%
    23:00 -1°C° 0 mm 4 mps 734 mmHg 84%
    Show more